User: anonymous   Login
Location: Aragüita
(10.0436°N, 67.8028°W)
Time: 22:20:27
(UTC+00:00)
Language:

PAYLOAD B - Orbit

View from above orbital plane
View from above orbital plane
View from above satellite
View from above satellite

Ground track
Ground track

The orbit data is extracted from the following two-line orbital elements,

1 27431U 02024B   24170.58640802  .00000056  00000-0  57330-4 0  9995
2 27431  99.0536 209.1416 0016314 127.5906 232.6748 14.09989145136797
Epoch (UTC): 18 June 2024 14:04:25
Eccentricity: 0.0016314
inclination: 99.0536°
perigee height: 847 km
apogee height: 871 km
right ascension of ascending node: 209.1416°
argument of perigee: 127.5906°
revolutions per day: 14.09989145
mean anomaly at epoch: 232.6748°
orbit number at epoch: 13679

The dashed part of the orbit path shows where the satellite is in the earth's shadow,  

DLR